Weather Roundup
Issued by NWS Springfield, MO

Home | Current Version | Previous Version | Text Only | Print | Product List | Glossary On
Versions: 1 2 3 4 5 6 7 8 9 10 11 12 13 14 15 16 17 18 19 20 21 22 23 24 25 26 27 28 29 30 31 32 33 34 35 36 37 38 39 40 41 42 43 44 45 46 47 48 49 50
000
NZUS99 KSGF 290707
HRRSGF

HOURLY WEATHER
NATIONAL WEATHER SERVICE SPRINGFIELD MO
200 AM CDT FRI APR 29 2016

......SGF CWA......

CITY           SKY/WX    TMP DP  RH WIND       PRES   REMARKS
SPRINGFIELD    CLOUDY    57  48  72 NE8       30.00S
JOPLIN         CLOUDY    57  51  80 NE9       30.01R
WEST PLAINS    CLOUDY    55  44  66 N3        30.01S
ROLLA          PTCLDY    50  47  89 CALM      30.04R
OSAGE BEACH    CLOUDY    52  41  66 NE3       30.05S

......SURROUNDING SGF CWA......

CITY           SKY/WX    TMP DP  RH WIND       PRES   REMARKS
CHANUTE        CLOUDY    55  46  71 NE14      30.03S
PARSONS        CLOUDY    56  51  84 N10       30.02R
COFFEYVILLE    CLOUDY    58  51  78 N13       29.99R
EMPORIA        LGT RAIN  51  45  79 NE12      30.06F
GROVE OK       MOCLDY    61  52  72 CALM      29.98S
ROGERS AR      CLOUDY    63  45  51 E5        29.99R
SILOAM SPRINGS PTCLDY    61  43  51 E8        29.96S
HARRISON AR    CLOUDY    60  46  59 E5        29.98F
NEAR YELLVILLE CLOUDY   N/A N/A N/A CALM      29.95S

......KANSAS AND MISSOURI......

CITY           SKY/WX    TMP DP  RH WIND       PRES   REMARKS
KANSAS CTY INT CLOUDY    50  44  80 NW6       30.09R
DOWNTOWN KC    CLOUDY    53  46  77 N5        30.09R
COLUMBIA       CLOUDY    51  48  89 NW5       30.05R
SEDALIA        CLOUDY    52  48  86 N7        30.07S
ST JOSEPH      CLOUDY    50  44  80 N7        30.11R
ST LOUIS       MOCLDY    57  49  74 CALM      30.04R
SPIRIT OF STL  MOCLDY    52  51  97 CALM      30.03R
KIRKSVILLE     CLEAR     48  43  82 NW6       30.07R
WICHITA        CLOUDY    55  48  77 NE15      30.02R
TOPEKA         LGT RAIN  50  45  83 CALM      30.11R
OLATHE         MOCLDY    51  45  79 N7        30.09R

......TENNESSEE......

CITY           SKY/WX    TMP DP  RH WIND       PRES   REMARKS
MEMPHIS        CLOUDY    68  51  54 E3        29.95S
NASHVILLE      CLEAR     59  54  83 S3        30.00S

......ARKANSAS.......

CITY           SKY/WX    TMP DP  RH WIND       PRES   REMARKS
FAYETTEVILLE   CLOUDY    55  52  89 CALM      29.97R
FT SMITH       CLOUDY    64  50  60 NE7       29.91S
LITTLE ROCK    CLOUDY    66  56  70 NE5       29.93F

......OKLAHOMA.......

CITY           SKY/WX    TMP DP  RH WIND       PRES   REMARKS
TULSA          CLOUDY    62  52  69 N6        29.90F
PONCA CITY     CLOUDY    58  50  75 NE13      29.97R
MCALESTER      PTCLDY    66  53  63 E5        29.84F
OKLAHOMA CITY  MOCLDY    61  51  70 NE15      29.86F

......IOWA............

CITY           SKY/WX    TMP DP  RH WIND       PRES   REMARKS
DES MOINES     CLOUDY    48  43  82 N9        30.08S
QUAD CITIES    CLOUDY    49  45  86 NE7       30.02S FOG

......ILLINOIS........

CITY           SKY/WX    TMP DP  RH WIND       PRES   REMARKS
QUINCY         PTCLDY    52  46  80 NW9       30.03S
CHICAGO        CLOUDY    42  41  96 NW5       30.02R FOG




USA.gov is the U.S. government's official web portal to all federal, state and local government web resources and services.